This is the latest recevied weather packets stored in our database for station/object KF0EZB. If no packets are shown the sender has not sent any weather packets the latest 10 day(s).
| Time | Temp. | Humidity | Pressure | Rain* | Wind** | Luminosity | Snow |
|---|---|---|---|---|---|---|---|
| 1777845751 | 30.56° C | 15% | 1007.4 hPa | 0 mm | - | 480 W/m² | - |
| 1777845447 | 30.56° C | 16% | 1007.6 hPa | 0 mm | - | 366 W/m² | - |
| 1777845145 | 30.56° C | 15% | 1007.6 hPa | 0 mm | - | 489 W/m² | - |
| 1777844843 | 31.11° C | 14% | 1007.9 hPa | 0 mm | - | 527 W/m² | - |
| 1777844539 | 31.11° C | 14% | 1007.6 hPa | 0 mm | - | 425 W/m² | - |
| 1777844237 | 31.11° C | 16% | 1007.8 hPa | 0 mm | - | 551 W/m² | - |
| 1777843934 | 31.11° C | 15% | 1007.9 hPa | 0 mm | - | 382 W/m² | - |
| 1777843631 | 30.56° C | 15% | 1008 hPa | 0 mm | - | 601 W/m² | - |
| 1777843329 | 30.56° C | 15% | 1008 hPa | 0 mm | - | 406 W/m² | - |
| 1777843026 | 30.56° C | 16% | 1008.2 hPa | 0 mm | - | 502 W/m² | - |
| 1777842722 | 30.56° C | 15% | 1008.1 hPa | 0 mm | - | 521 W/m² | - |
| 1777842418 | 30.56° C | 15% | 1008.2 hPa | 0 mm | - | 604 W/m² | - |
| 1777842115 | 31.11° C | 15% | 1008.5 hPa | 0 mm | - | 582 W/m² | - |
| 1777841810 | 30.56° C | 14% | 1008.7 hPa | 0 mm | - | 661 W/m² | - |
| 1777841507 | 30.56° C | 16% | 1008.8 hPa | 0 mm | - | 526 W/m² | - |
| 1777841203 | 30.56° C | 16% | 1009 hPa | 0 mm | - | 527 W/m² | - |
| 1777840901 | 30.56° C | 16% | 1009 hPa | 0 mm | - | 634 W/m² | - |
| 1777840598 | 30.56° C | 16% | 1009.2 hPa | 0 mm | - | 667 W/m² | - |
| 1777840296 | 31.11° C | 16% | 1009.1 hPa | 0 mm | - | 672 W/m² | - |
| 1777839993 | 30.56° C | 16% | 1009.3 hPa | 0 mm | - | 686 W/m² | - |
| 1777839691 | 31.11° C | 16% | 1009.2 hPa | 0 mm | - | 728 W/m² | - |
| 1777839389 | 30.56° C | 17% | 1009.5 hPa | 0 mm | - | 712 W/m² | - |
| 1777839086 | 30.56° C | 17% | 1009.3 hPa | 0 mm | - | 755 W/m² | - |
| 1777838782 | 30.56° C | 17% | 1009.6 hPa | 0 mm | - | 783 W/m² | - |
| 1777838478 | 30.56° C | 17% | 1009.8 hPa | 0 mm | - | 491 W/m² | - |
* Rain latest hour (hover to see other rain measurements)
** Current wind speed in m/s (hover to see current wind gust speed)